Time,TemperatureF,DewpointF,PressureIn,WindDirection,WindDirectionDegrees,WindSpeedMPH,WindSpeedGustMPH,Humidity,HourlyPrecipIn,Conditions,Clouds,dailyrainin,SolarRadiationWatts/m^2,SoftwareType,DateUTC
2013-01-21 00:04:00,27.0,13.0,-100.00,NNW,338,9.0,22.0,54,0.00,,,0.00,0.000000,,2013-01-21 05:04:00,
2013-01-21 00:13:00,27.0,13.0,-100.00,NNW,338,9.0,22.0,54,0.00,,,0.00,0.000000,,2013-01-21 05:13:00,
2013-01-21 00:22:00,27.0,13.0,-100.00,NNW,338,9.0,22.0,54,0.00,,,0.00,0.000000,,2013-01-21 05:22:00,
2013-01-21 00:34:00,27.0,13.0,-100.00,NNW,338,9.0,22.0,54,0.00,,,0.00,0.000000,,2013-01-21 05:34:00,
2013-01-21 00:53:00,25.0,9.0,-100.00,NW,326,8.0,22.0,50,0.00,,,0.00,0.000000,,2013-01-21 05:53:00,
2013-01-21 01:03:00,25.0,9.0,-100.00,NW,326,8.0,22.0,50,0.00,,,0.00,0.000000,,2013-01-21 06:03:00,
2013-01-21 01:13:00,25.0,9.0,-100.00,NW,326,8.0,22.0,50,0.00,,,0.00,0.000000,,2013-01-21 06:13:00,
2013-01-21 01:23:00,25.0,9.0,-100.00,NW,326,8.0,22.0,50,0.00,,,0.00,0.000000,,2013-01-21 06:23:00,
2013-01-21 01:33:00,25.0,9.0,-100.00,NW,326,8.0,22.0,50,0.00,,,0.00,0.000000,,2013-01-21 06:33:00,
2013-01-21 01:53:00,23.0,6.0,-100.00,NNW,329,9.0,21.0,48,0.00,,,0.00,0.000000,,2013-01-21 06:53:00,
2013-01-21 02:03:00,23.0,6.0,-100.00,NNW,329,9.0,21.0,48,0.00,,,0.00,0.000000,,2013-01-21 07:03:00,
2013-01-21 02:13:00,23.0,6.0,-100.00,NNW,329,9.0,21.0,48,0.00,,,0.00,0.000000,,2013-01-21 07:13:00,
2013-01-21 02:23:00,23.0,6.0,-100.00,NNW,329,9.0,21.0,48,0.00,,,0.00,0.000000,,2013-01-21 07:23:00,
2013-01-21 02:33:00,23.0,6.0,-100.00,NNW,329,9.0,21.0,48,0.00,,,0.00,0.000000,,2013-01-21 07:33:00,
2013-01-21 02:53:00,22.0,5.0,-100.00,NNW,332,8.0,24.0,48,0.00,,,0.00,0.000000,,2013-01-21 07:53:00,
2013-01-21 03:03:00,22.0,5.0,-100.00,NNW,332,8.0,24.0,48,0.00,,,0.00,0.000000,,2013-01-21 08:03:00,
2013-01-21 03:14:00,22.0,5.0,-100.00,NNW,332,8.0,24.0,48,0.00,,,0.00,0.000000,,2013-01-21 08:14:00,
2013-01-21 03:23:00,22.0,5.0,-100.00,NNW,332,8.0,24.0,48,0.00,,,0.00,0.000000,,2013-01-21 08:23:00,
2013-01-21 03:33:00,22.0,5.0,-100.00,NNW,332,8.0,24.0,48,0.00,,,0.00,0.000000,,2013-01-21 08:33:00,
2013-01-21 03:53:00,21.0,4.0,-100.00,NNW,330,9.0,21.0,46,0.00,,,0.00,0.000000,,2013-01-21 08:53:00,
2013-01-21 04:03:00,21.0,4.0,-100.00,NNW,330,9.0,21.0,46,0.00,,,0.00,0.000000,,2013-01-21 09:03:00,
2013-01-21 04:13:00,21.0,4.0,-100.00,NNW,330,9.0,21.0,46,0.00,,,0.00,0.000000,,2013-01-21 09:13:00,
2013-01-21 04:23:00,21.0,4.0,-100.00,NNW,330,9.0,21.0,46,0.00,,,0.00,0.000000,,2013-01-21 09:23:00,
2013-01-21 04:33:00,21.0,4.0,-100.00,NNW,330,9.0,21.0,46,0.00,,,0.00,0.000000,,2013-01-21 09:33:00,
2013-01-21 04:53:00,19.0,3.0,-100.00,NW,320,8.0,23.0,48,0.00,,,0.00,0.000000,,2013-01-21 09:53:00,
2013-01-21 05:03:00,19.0,3.0,-100.00,NW,320,8.0,23.0,48,0.00,,,0.00,0.000000,,2013-01-21 10:03:00,
2013-01-21 05:12:00,19.0,3.0,-100.00,NW,320,8.0,23.0,48,0.00,,,0.00,0.000000,,2013-01-21 10:12:00,
2013-01-21 05:22:00,19.0,3.0,-100.00,NW,320,8.0,23.0,48,0.00,,,0.00,0.000000,,2013-01-21 10:22:00,
2013-01-21 05:33:00,19.0,3.0,-100.00,NW,320,8.0,23.0,48,0.00,,,0.00,0.000000,,2013-01-21 10:33:00,
2013-01-21 05:53:00,18.0,3.0,-100.00,NW,326,6.0,18.0,50,0.00,,,0.00,0.000000,,2013-01-21 10:53:00,
2013-01-21 06:03:00,18.0,3.0,-100.00,NW,326,6.0,18.0,50,0.00,,,0.00,0.000000,,2013-01-21 11:03:00,
2013-01-21 06:13:00,18.0,3.0,-100.00,NW,326,6.0,18.0,50,0.00,,,0.00,0.000000,,2013-01-21 11:13:00,
2013-01-21 06:23:00,18.0,3.0,-100.00,NW,326,6.0,18.0,50,0.00,,,0.00,0.000000,,2013-01-21 11:23:00,
2013-01-21 06:33:00,18.0,3.0,-100.00,NW,326,6.0,18.0,50,0.00,,,0.00,0.000000,,2013-01-21 11:33:00,
2013-01-21 07:03:00,16.0,-1.0,-100.00,NW,321,8.0,20.0,47,0.00,,,0.00,0.000000,,2013-01-21 12:03:00,
2013-01-21 07:12:00,16.0,-1.0,-100.00,NW,321,8.0,20.0,47,0.00,,,0.00,0.000000,,2013-01-21 12:12:00,
2013-01-21 07:22:00,16.0,-1.0,-100.00,NW,321,8.0,20.0,47,0.00,,,0.00,0.000000,,2013-01-21 12:22:00,
2013-01-21 07:33:00,16.0,-1.0,-100.00,NW,321,8.0,20.0,47,0.00,,,0.00,0.000000,,2013-01-21 12:33:00,
2013-01-21 07:53:00,16.0,0.0,-100.00,NW,316,6.0,21.0,49,0.00,,,0.00,7.000000,,2013-01-21 12:53:00,
2013-01-21 08:03:00,16.0,0.0,-100.00,NW,316,6.0,21.0,49,0.00,,,0.00,7.000000,,2013-01-21 13:03:00,
2013-01-21 08:13:00,16.0,0.0,-100.00,NW,316,6.0,21.0,49,0.00,,,0.00,7.000000,,2013-01-21 13:13:00,
2013-01-21 08:23:00,16.0,0.0,-100.00,NW,316,6.0,21.0,49,0.00,,,0.00,7.000000,,2013-01-21 13:23:00,
2013-01-21 08:33:00,16.0,0.0,-100.00,NW,316,6.0,21.0,49,0.00,,,0.00,7.000000,,2013-01-21 13:33:00,
2013-01-21 08:54:00,19.0,-1.0,-100.00,NNW,335,7.0,18.0,40,0.00,,,0.00,91.000000,,2013-01-21 13:54:00,
2013-01-21 09:04:00,19.0,-1.0,-100.00,NNW,335,7.0,18.0,40,0.00,,,0.00,91.000000,,2013-01-21 14:04:00,
2013-01-21 09:13:00,19.0,-1.0,-100.00,NNW,335,7.0,18.0,40,0.00,,,0.00,91.000000,,2013-01-21 14:13:00,
2013-01-21 09:23:00,19.0,-1.0,-100.00,NNW,335,7.0,18.0,40,0.00,,,0.00,91.000000,,2013-01-21 14:23:00,
2013-01-21 09:33:00,19.0,-1.0,-100.00,NNW,335,7.0,18.0,40,0.00,,,0.00,91.000000,,2013-01-21 14:33:00,
2013-01-21 09:54:00,21.0,-1.0,-100.00,NW,323,8.0,17.0,37,0.00,,,0.00,270.000000,,2013-01-21 14:54:00,
2013-01-21 10:03:00,21.0,-1.0,-100.00,NW,323,8.0,17.0,37,0.00,,,0.00,270.000000,,2013-01-21 15:03:00,
2013-01-21 10:13:00,21.0,-1.0,-100.00,NW,323,8.0,17.0,37,0.00,,,0.00,270.000000,,2013-01-21 15:13:00,
2013-01-21 10:23:00,21.0,-1.0,-100.00,NW,323,8.0,17.0,37,0.00,,,0.00,270.000000,,2013-01-21 15:23:00,
2013-01-21 10:33:00,21.0,-1.0,-100.00,NW,323,8.0,17.0,37,0.00,,,0.00,270.000000,,2013-01-21 15:33:00,
2013-01-21 10:53:00,23.0,-2.0,-100.00,NNW,333,6.0,17.0,33,0.00,,,0.00,396.000000,,2013-01-21 15:53:00,
2013-01-21 11:04:00,23.0,-2.0,-100.00,NNW,333,6.0,17.0,33,0.00,,,0.00,396.000000,,2013-01-21 16:04:00,
2013-01-21 11:13:00,23.0,-2.0,-100.00,NNW,333,6.0,17.0,33,0.00,,,0.00,396.000000,,2013-01-21 16:13:00,
2013-01-21 11:23:00,23.0,-2.0,-100.00,NNW,333,6.0,17.0,33,0.00,,,0.00,396.000000,,2013-01-21 16:23:00,
2013-01-21 11:33:00,23.0,-2.0,-100.00,NNW,333,6.0,17.0,33,0.00,,,0.00,396.000000,,2013-01-21 16:33:00,
2013-01-21 11:53:00,24.0,-2.0,-100.00,NW,322,5.0,15.0,31,0.00,,,0.00,475.000000,,2013-01-21 16:53:00,
2013-01-21 12:03:00,24.0,-2.0,-100.00,NW,322,5.0,15.0,31,0.00,,,0.00,475.000000,,2013-01-21 17:03:00,
2013-01-21 12:13:00,24.0,-2.0,-100.00,NW,322,5.0,15.0,31,0.00,,,0.00,475.000000,,2013-01-21 17:13:00,
2013-01-21 12:23:00,24.0,-2.0,-100.00,NW,322,5.0,15.0,31,0.00,,,0.00,475.000000,,2013-01-21 17:23:00,
2013-01-21 12:33:00,24.0,-2.0,-100.00,NW,322,5.0,15.0,31,0.00,,,0.00,475.000000,,2013-01-21 17:33:00,
2013-01-21 12:53:00,25.0,-1.0,-100.00,NW,318,4.0,16.0,32,0.00,,,0.00,478.000000,,2013-01-21 17:53:00,
2013-01-21 13:03:00,25.0,-1.0,-100.00,NW,318,4.0,16.0,32,0.00,,,0.00,478.000000,,2013-01-21 18:03:00,
2013-01-21 13:12:00,25.0,-1.0,-100.00,NW,318,4.0,16.0,32,0.00,,,0.00,478.000000,,2013-01-21 18:12:00,
2013-01-21 13:23:00,25.0,-1.0,-100.00,NW,318,4.0,16.0,32,0.00,,,0.00,478.000000,,2013-01-21 18:23:00,
2013-01-21 13:33:00,25.0,-1.0,-100.00,NW,318,4.0,16.0,32,0.00,,,0.00,478.000000,,2013-01-21 18:33:00,
2013-01-21 13:53:00,27.0,-2.0,-100.00,NW,323,4.0,10.0,27,0.00,,,0.00,365.000000,,2013-01-21 18:53:00,
2013-01-21 14:03:00,27.0,-2.0,-100.00,NW,323,4.0,10.0,27,0.00,,,0.00,365.000000,,2013-01-21 19:03:00,
2013-01-21 14:13:00,27.0,-2.0,-100.00,NW,323,4.0,10.0,27,0.00,,,0.00,365.000000,,2013-01-21 19:13:00,
2013-01-21 14:22:00,27.0,-2.0,-100.00,NW,323,4.0,10.0,27,0.00,,,0.00,365.000000,,2013-01-21 19:22:00,
2013-01-21 14:33:00,27.0,-2.0,-100.00,NW,323,4.0,10.0,27,0.00,,,0.00,365.000000,,2013-01-21 19:33:00,
2013-01-21 14:53:00,25.0,-3.0,-100.00,NW,317,3.0,8.0,29,0.00,,,0.00,290.000000,,2013-01-21 19:53:00,
2013-01-21 15:04:00,25.0,-3.0,-100.00,NW,317,3.0,8.0,29,0.00,,,0.00,290.000000,,2013-01-21 20:04:00,
2013-01-21 15:12:00,25.0,-3.0,-100.00,NW,317,3.0,8.0,29,0.00,,,0.00,290.000000,,2013-01-21 20:12:00,
2013-01-21 15:23:00,25.0,-3.0,-100.00,NW,317,3.0,8.0,29,0.00,,,0.00,290.000000,,2013-01-21 20:23:00,
2013-01-21 15:33:00,25.0,-3.0,-100.00,NW,317,3.0,8.0,29,0.00,,,0.00,290.000000,,2013-01-21 20:33:00,
2013-01-21 15:53:00,23.0,-4.0,-100.00,NW,323,3.0,8.0,30,0.00,,,0.00,106.000000,,2013-01-21 20:53:00,
2013-01-21 16:04:00,23.0,-4.0,-100.00,NW,323,3.0,8.0,30,0.00,,,0.00,106.000000,,2013-01-21 21:04:00,
2013-01-21 16:12:00,23.0,-4.0,-100.00,NW,323,3.0,8.0,30,0.00,,,0.00,106.000000,,2013-01-21 21:12:00,
2013-01-21 16:23:00,23.0,-4.0,-100.00,NW,323,3.0,8.0,30,0.00,,,0.00,106.000000,,2013-01-21 21:23:00,
2013-01-21 16:33:00,23.0,-4.0,-100.00,NW,323,3.0,8.0,30,0.00,,,0.00,106.000000,,2013-01-21 21:33:00,
2013-01-21 17:04:00,23.0,-3.0,-100.00,North,353,2.0,8.0,31,0.00,,,0.00,19.000000,,2013-01-21 22:04:00,
2013-01-21 17:13:00,23.0,-3.0,-100.00,North,353,2.0,8.0,31,0.00,,,0.00,19.000000,,2013-01-21 22:13:00,
2013-01-21 17:23:00,23.0,-3.0,-100.00,North,353,2.0,8.0,31,0.00,,,0.00,19.000000,,2013-01-21 22:23:00,
2013-01-21 17:33:00,23.0,-3.0,-100.00,North,353,2.0,8.0,31,0.00,,,0.00,19.000000,,2013-01-21 22:33:00,
2013-01-21 17:53:00,23.0,-2.0,-100.00,North,11,1.0,8.0,32,0.00,,,0.00,0.000000,,2013-01-21 22:53:00,
2013-01-21 18:03:00,23.0,-2.0,-100.00,North,11,1.0,8.0,32,0.00,,,0.00,0.000000,,2013-01-21 23:03:00,
2013-01-21 18:13:00,23.0,-2.0,-100.00,North,11,1.0,8.0,32,0.00,,,0.00,0.000000,,2013-01-21 23:13:00,
2013-01-21 18:23:00,23.0,-2.0,-100.00,North,11,1.0,8.0,32,0.00,,,0.00,0.000000,,2013-01-21 23:23:00,
2013-01-21 18:33:00,23.0,-2.0,-100.00,North,11,1.0,8.0,32,0.00,,,0.00,0.000000,,2013-01-21 23:33:00,
2013-01-21 19:03:00,23.0,3.0,-100.00,SE,141,0.0,4.0,41,0.00,,,0.00,0.000000,,2013-01-22 00:03:00,
2013-01-21 19:12:00,23.0,3.0,-100.00,SE,141,0.0,4.0,41,0.00,,,0.00,0.000000,,2013-01-22 00:12:00,
2013-01-21 19:23:00,23.0,3.0,-100.00,SE,141,0.0,4.0,41,0.00,,,0.00,0.000000,,2013-01-22 00:23:00,
2013-01-21 19:33:00,23.0,3.0,-100.00,SE,141,0.0,4.0,41,0.00,,,0.00,0.000000,,2013-01-22 00:33:00,
2013-01-21 20:02:00,22.0,5.0,-100.00,SSE,166,2.0,4.0,47,0.00,,,0.00,0.000000,,2013-01-22 01:02:00,
2013-01-21 20:12:00,22.0,5.0,-100.00,SSE,166,2.0,4.0,47,0.00,,,0.00,0.000000,,2013-01-22 01:12:00,
2013-01-21 20:23:00,22.0,5.0,-100.00,SSE,166,2.0,4.0,47,0.00,,,0.00,0.000000,,2013-01-22 01:23:00,
2013-01-21 20:33:00,22.0,5.0,-100.00,SSE,166,2.0,4.0,47,0.00,,,0.00,0.000000,,2013-01-22 01:33:00,
2013-01-21 21:03:00,22.0,11.0,-100.00,SE,132,2.0,5.0,61,0.00,,,0.00,0.000000,,2013-01-22 02:03:00,
2013-01-21 21:12:00,22.0,11.0,-100.00,SE,132,2.0,5.0,61,0.00,,,0.00,0.000000,,2013-01-22 02:12:00,
2013-01-21 21:23:00,22.0,11.0,-100.00,SE,132,2.0,5.0,61,0.00,,,0.00,0.000000,,2013-01-22 02:23:00,
2013-01-21 21:32:00,22.0,11.0,-100.00,SE,132,2.0,5.0,61,0.00,,,0.00,0.000000,,2013-01-22 02:32:00,
2013-01-21 21:53:00,22.0,17.0,-100.00,North,9,3.0,4.0,80,0.00,,,0.00,0.000000,,2013-01-22 02:53:00,
2013-01-21 22:03:00,22.0,17.0,-100.00,North,9,3.0,4.0,80,0.00,,,0.00,0.000000,,2013-01-22 03:03:00,
2013-01-21 22:12:00,22.0,17.0,-100.00,North,9,3.0,4.0,80,0.00,,,0.00,0.000000,,2013-01-22 03:12:00,
2013-01-21 22:22:00,22.0,17.0,-100.00,North,9,3.0,4.0,80,0.00,,,0.00,0.000000,,2013-01-22 03:22:00,
2013-01-21 22:33:00,22.0,17.0,-100.00,North,9,3.0,4.0,80,0.00,,,0.00,0.000000,,2013-01-22 03:33:00,
2013-01-21 22:53:00,20.0,15.0,-100.00,NE,38,5.0,9.0,82,0.00,,,0.00,0.000000,,2013-01-22 03:53:00,
2013-01-21 23:03:00,20.0,15.0,-100.00,NE,38,5.0,9.0,82,0.00,,,0.00,0.000000,,2013-01-22 04:03:00,
2013-01-21 23:12:00,20.0,15.0,-100.00,NE,38,5.0,9.0,82,0.00,,,0.00,0.000000,,2013-01-22 04:12:00,
2013-01-21 23:22:00,20.0,15.0,-100.00,NE,38,5.0,9.0,82,0.00,,,0.00,0.000000,,2013-01-22 04:22:00,
2013-01-21 23:33:00,20.0,15.0,-100.00,NE,38,5.0,9.0,82,0.00,,,0.00,0.000000,,2013-01-22 04:33:00,
2013-01-21 23:53:00,19.0,15.0,-100.00,NE,44,6.0,12.0,85,0.00,,,0.00,0.000000,,2013-01-22 04:53:00,